Home   Weather   Žilina   Past weeks
Flag for Slovakia

Past Weather in Žilina, Slovakia — Yesterday and Last 2 Weeks

Now
54 °F

Clear.


Feels Like: 54 °F
Forecast: 77 / 49 °F
Wind: 2 mph from North

Location: Dolny Hricov

Current Time: Jul 18, 2019 at 12:58:42 am

Latest Report: Jul 18, 2019 at 12:30 am


Visibility: 10 mi

Pressure: 29.92 "Hg

Humidity: 82%

Dew Point: 48 °F

Location of ŽilinaLocation

Past Weather in Žilina — Graph

°F

Žilina Temperature Yesterday

Maximum temperature yesterday: 75 °F (at 3:00 pm)
Minimum temperature yesterday: 46 °F (at 5:30 am)
Average temperature yesterday: 62 °F

High & Low Weather Summary for the Past Weeks

 TemperatureHumidityPressure
High84 °F (Jul 6, 3:03 pm)100% (Jul 13, 5:30 am)30.18 "Hg (Jul 13, 5:30 am)
Low46 °F (Jul 16, 4:30 am)27% (Jul 4, 6:00 pm)29.71 "Hg (Jul 7, 9:30 am)
Average62 °F63%29.94 "Hg
* Reported Jul 2 11:00 pm — Jul 17 11:30 pm, Žilina. Weather by CustomWeather, © 2019

Note: Actual official high and low records may vary slightly from our data, if they occured in-between our weather recording intervals... More about our weather records

Advertising

Žilina Weather History for the Previous 24 Hours

Scroll right to see more
 ConditionsComfort  
Time TempWeatherWind HumidityBarometerVisibility
11:30 pm
Wed, Jul 17
55 °FClear.3 mph72%29.92 "Hg10 mi
11:00 pm57 °FClear.2 mph72%29.92 "Hg10 mi
10:30 pm59 °FClear.2 mph68%29.92 "Hg10 mi
10:00 pm59 °FClear.2 mph72%29.92 "Hg10 mi
9:30 pm63 °FClear.2 mph59%29.92 "Hg10 mi
9:00 pm64 °FClear.5 mph56%29.92 "Hg10 mi
8:30 pm66 °FSunny.6 mph49%29.89 "Hg10 mi
8:00 pm70 °FSunny.7 mph43%29.89 "Hg10 mi
7:30 pm72 °FSunny.7 mph44%29.89 "Hg10 mi
7:00 pm72 °FSunny.10 mph41%29.89 "Hg10 mi
6:30 pm73 °FPassing clouds.7 mph36%29.89 "HgN/A
6:00 pm73 °FPassing clouds.9 mph36%29.89 "HgN/A
5:30 pm73 °FSunny.8 mph36%29.89 "Hg10 mi
5:00 pm75 °FPassing clouds.8 mph34%29.89 "HgN/A
4:30 pm75 °FPassing clouds.7 mph36%29.89 "HgN/A
4:00 pm73 °FPassing clouds.6 mph38%29.89 "HgN/A
3:30 pm73 °FSunny.6 mph38%29.89 "Hg10 mi
3:00 pm75 °FScattered clouds.8 mph36%29.89 "HgN/A
2:30 pm72 °FScattered clouds.8 mph41%29.89 "HgN/A
2:00 pm72 °FScattered clouds.7 mph41%29.92 "HgN/A
1:30 pm72 °FPartly sunny.2 mph41%29.92 "HgN/A
1:00 pm70 °FPartly sunny.5 mph46%29.92 "HgN/A
12:30 pm70 °FPartly sunny.6 mph43%29.92 "HgN/A
12:00 pm70 °FPartly sunny.3 mph46%29.92 "HgN/A
11:43 am70 °FPartly sunny.3 mph50%29.92 "HgN/A
11:30 am66 °FPartly sunny.3 mph56%29.92 "HgN/A
11:00 am68 °FPartly sunny.6 mph53%29.92 "HgN/A
10:30 am66 °FScattered clouds.3 mph56%29.95 "HgN/A
10:00 am63 °FScattered clouds.1 mph59%29.95 "HgN/A
9:30 am63 °FScattered clouds.2 mph59%29.95 "HgN/A
9:00 am61 °FScattered clouds.2 mph68%29.95 "HgN/A
8:30 am59 °FPassing clouds.1 mph68%29.95 "HgN/A
8:00 am57 °FPassing clouds.2 mph72%29.95 "HgN/A
7:30 am54 °FPassing clouds.1 mph82%29.95 "HgN/A
7:00 am52 °FPassing clouds.1 mph88%29.95 "HgN/A
6:30 am50 °FPassing clouds.No wind94%29.95 "HgN/A
6:00 am48 °FPassing clouds.1 mph94%29.95 "HgN/A
5:30 am46 °FFog.1 mph93%29.95 "HgN/A
5:00 am48 °FSunny.2 mph94%29.95 "Hg10 mi
4:30 am48 °FClear.1 mph94%29.95 "Hg10 mi
4:00 am48 °FClear.1 mph87%29.95 "Hg10 mi
3:30 am48 °FClear.1 mph87%29.95 "Hg10 mi
3:00 am50 °FClear.2 mph94%29.95 "Hg10 mi
2:30 am50 °FClear.1 mph94%29.95 "Hg10 mi
2:00 am50 °FClear.1 mph94%29.95 "Hg10 mi
1:30 am54 °FClear.1 mph82%29.95 "Hg10 mi
1:00 am54 °FClear.1 mph82%29.95 "Hg10 mi
12:30 am55 °FClear.2 mph82%29.95 "Hg10 mi
12:00 am57 °FClear.No wind72%29.95 "Hg10 mi
Weather by CustomWeather, © 2019

See weather overview